GW0305 Weather Reports


Display with metric or nautical units.
time (UTC)temp
F
wind
direction
speed
MPH
gust
MPH
rain 1hr
in
rain 24hr
in
rain mn
in
humidity
%
barometer
mb
20260506080139 68 90 1.0 7.0 0.00 0.00 0.00 96 1021.4
20260506073038 67 68 1.0 4.0 0.00 0.00 0.00 95 1021.7
20260506072528 67 90 2.0 4.0 0.00 0.00 0.00 95 1021.6
20260506072018 67 113 2.0 4.0 0.00 0.00 0.00 95 1021.6
20260506071516 67 113 2.0 4.0 0.00 0.00 0.00 95 1022.0
20260506070958 67 45 1.0 4.0 0.00 0.00 0.00 95 1021.8
20260506062053 68 23 2.0 4.0 0.00 0.12 0.00 94 1022.5
20260506061033 68 68 0.0 4.0 0.00 0.12 0.00 94 1022.6
20260506060522 68 45 1.0 4.0 0.00 0.12 0.00 94 1022.5
20260506050831 68 315 2.0 6.0 0.00 0.12 0.00 92 1022.8
20260506050321 68 45 2.0 4.0 0.00 0.12 0.00 92 1022.9
20260506044752 69 68 2.0 7.0 0.00 0.12 0.00 92 1023.0
20260506044241 69 23 4.0 7.0 0.00 0.12 0.00 92 1023.1
20260506043731 68 68 2.0 4.0 0.00 0.12 0.00 92 1023.1
20260506043220 68 68 2.0 4.0 0.00 0.12 0.00 92 1023.2
20260506042712 68 158 1.0 6.0 0.00 0.12 0.00 92 1023.2
20260506042159 68 45 2.0 6.0 0.00 0.12 0.00 92 1023.2
20260506041652 68 68 2.0 4.0 0.00 0.12 0.00 91 1023.0
20260506041140 68 113 2.0 6.0 0.00 0.12 0.00 91 1023.1
20260506040630 68 90 2.0 6.0 0.00 0.12 0.00 92 1023.3
20260506040130 68 23 2.0 6.0 0.00 0.12 0.00 92 1023.2
20260506035609 68 90 1.0 4.0 0.00 0.12 0.00 92 1023.4
20260506035100 68 68 2.0 4.0 0.00 0.12 0.00 91 1023.0
20260506034040 68 90 2.0 4.0 0.00 0.12 0.00 92 1023.3
20260506033530 68 68 1.0 4.0 0.00 0.12 0.00 92 1023.4
20260506033021 68 45 1.0 4.0 0.00 0.12 0.00 92 1023.3
20260506032509 68 68 2.0 4.0 0.00 0.12 0.00 92 1023.4
20260506031449 68 45 1.0 4.0 0.00 0.12 0.00 92 1023.3
20260506030429 68 68 1.0 6.0 0.00 0.12 0.00 91 1023.4
20260506025918 68 90 1.0 4.0 0.00 0.12 0.12 91 1023.5
20260506024348 68 45 2.0 4.0 0.00 0.12 0.12 91 1023.3
20260506023838 68 68 2.0 4.0 0.00 0.12 0.12 91 1023.6
20260506023328 68 90 1.0 4.0 0.00 0.12 0.12 91 1023.6
20260506022818 68 45 0.0 4.0 0.00 0.12 0.12 91 1023.4
20260506022308 68 135 1.0 4.0 0.00 0.12 0.12 91 1023.5
20260506021758 68 68 1.0 4.0 0.00 0.12 0.12 91 1023.4
20260506021247 68 68 1.0 2.0 0.00 0.12 0.12 91 1023.5
20260506020737 68 68 0.0 2.0 0.00 0.12 0.12 91 1023.8
20260506020227 69 90 0.0 4.0 0.00 0.12 0.12 90 1024.0
20260506015717 69 45 2.0 4.0 0.00 0.12 0.12 90 1023.8
20260506015208 69 90 1.0 4.0 0.00 0.12 0.12 89 1023.8
20260506014656 69 113 2.0 4.0 0.00 0.12 0.12 89 1023.6
20260506014147 69 135 1.0 4.0 0.00 0.12 0.12 89 1023.6
20260506013127 69 90 1.0 4.0 0.00 0.12 0.12 88 1023.6
20260506012617 69 315 0.0 4.0 0.00 0.12 0.12 88 1023.4
20260506012107 69 68 2.0 4.0 0.00 0.12 0.12 88 1023.3
20260506011557 69 90 2.0 4.0 0.00 0.12 0.12 88 1023.4
20260506010542 68 68 2.0 2.0 0.00 0.12 0.12 89 1023.5
20260506010025 68 180 0.0 2.0 0.00 0.12 0.12 90 1023.5
20260506005516 68 90 1.0 2.0 0.00 0.12 0.12 90 1023.5
20260506005006 68 90 1.0 2.0 0.00 0.12 0.12 90 1023.5
20260506004456 67 113 0.0 2.0 0.00 0.12 0.12 91 1023.2
20260506003945 67 68 0.0 2.0 0.00 0.12 0.12 91 1023.5
20260506003436 68 90 1.0 2.0 0.00 0.12 0.12 91 1023.4
20260506002929 68 158 1.0 4.0 0.00 0.12 0.12 90 1023.3
20260506002417 68 90 2.0 4.0 0.00 0.12 0.12 90 1023.4
20260506001905 68 45 0.0 2.0 0.00 0.12 0.12 90 1023.2
20260506001355 68 68 1.0 2.0 0.00 0.12 0.12 90 1023.2
20260506000846 68 90 0.0 2.0 0.00 0.12 0.12 90 1023.2
20260506000335 68 113 1.0 4.0 0.00 0.12 0.12 89 1023.3
20260505235314 69 45 0.0 2.0 0.00 0.12 0.12 89 1023.4
20260505234804 69 113 1.0 2.0 0.00 0.12 0.12 89 1023.4
20260505234254 68 135 0.0 2.0 0.00 0.12 0.12 90 1023.3
20260505233743 69 45 0.0 2.0 0.00 0.12 0.12 90 1023.1
20260505233235 69 45 0.0 2.0 0.00 0.12 0.12 90 1023.5
20260505232724 69 113 1.0 2.0 0.00 0.12 0.12 90 1023.2
20260505232214 69 90 0.0 2.0 0.00 0.12 0.12 91 1023.3
20260505231703 69 113 0.0 2.0 0.00 0.12 0.12 91 1023.4
20260505230644 69 113 0.0 2.0 0.00 0.12 0.12 92 1023.2
20260505230133 69 180 1.0 2.0 0.00 0.12 0.12 92 1023.6
20260505225623 69 113 1.0 2.0 0.00 0.12 0.12 92 1023.2
20260505225113 69 338 0.0 2.0 0.00 0.12 0.12 92 1023.3
20260505224603 69 90 1.0 2.0 0.00 0.12 0.12 92 1023.2
20260505224053 69 113 0.0 2.0 0.00 0.12 0.12 93 1023.1
20260505223543 69 135 0.0 2.0 0.00 0.12 0.12 93 1023.0
20260505223034 70 113 0.0 2.0 0.00 0.12 0.12 93 1023.0
20260505222523 70 90 0.0 2.0 0.00 0.12 0.12 93 1023.0
20260505222014 70 90 0.0 2.0 0.00 0.12 0.12 93 1023.0
20260505221501 70 68 0.0 2.0 0.00 0.12 0.12 92 1022.8
20260505220443 70 113 0.0 2.0 0.00 0.12 0.12 92 1022.9
20260505215933 70 23 1.0 2.0 0.00 0.12 0.12 92 1022.8
20260505215421 70 90 0.0 2.0 0.00 0.12 0.12 92 1022.8
20260505214911 70 113 0.0 2.0 0.00 0.12 0.12 91 1022.7
20260505214402 70 68 1.0 2.0 0.00 0.12 0.12 91 1022.7
20260505213854 70 113 0.0 2.0 0.00 0.12 0.12 91 1022.8
20260505213341 70 68 1.0 2.0 0.00 0.12 0.12 91 1022.8
20260505212831 70 158 1.0 2.0 0.00 0.12 0.12 91 1022.8
20260505211811 71 90 1.0 4.0 0.00 0.12 0.12 90 1022.6
20260505210750 71 45 1.0 2.0 0.00 0.12 0.12 90 1022.8
20260505210240 71 113 0.0 2.0 0.00 0.12 0.12 90 1022.8
20260505205730 71 68 0.0 2.0 0.00 0.12 0.12 90 1022.8
20260505205221 71 68 1.0 2.0 0.00 0.12 0.12 90 1022.7
20260505204710 71 113 1.0 2.0 0.00 0.12 0.12 90 1022.7
20260505203650 72 135 0.0 2.0 0.00 0.12 0.12 90 1022.8
20260505203140 72 90 0.0 4.0 0.00 0.12 0.12 89 1023.0
20260505202630 72 135 1.0 4.0 0.00 0.12 0.12 89 1022.9
20260505202120 72 90 1.0 4.0 0.00 0.12 0.12 90 1022.8
20260505201610 72 90 1.0 2.0 0.00 0.12 0.12 90 1022.9
20260505200550 72 90 0.0 2.0 0.00 0.12 0.12 90 1023.1
20260505200039 72 135 0.0 2.0 0.00 0.12 0.12 90 1022.7
20260505195019 72 113 1.0 2.0 0.00 0.12 0.12 90 1022.7
20260505193958 73 135 1.0 4.0 0.00 0.12 0.12 89 1022.6
20260505193448 73 68 2.0 4.0 0.00 0.12 0.12 89 1022.5
20260505192939 73 113 1.0 4.0 0.02 0.12 0.12 90 1022.7
20260505192429 73 90 0.0 2.0 0.04 0.12 0.12 90 1022.4
20260505191919 73 113 0.0 2.0 0.06 0.12 0.12 91 1022.9
20260505191408 73 68 0.0 2.0 0.11 0.12 0.12 90 1022.8
20260505190859 73 90 0.0 2.0 0.12 0.12 0.12 89 1023.0
20260505190347 73 158 0.0 2.0 0.12 0.12 0.12 89 1023.1
20260505185840 73 158 0.0 2.0 0.12 0.12 0.12 91 1023.0
20260505185329 72 113 0.0 2.0 0.12 0.12 0.12 91 1023.0
20260505184818 73 0 0.0 2.0 0.12 0.12 0.12 90 1023.5
20260505184308 73 68 0.0 0.0 0.12 0.12 0.12 89 1023.3
20260505183757 73 225 0.0 0.0 0.12 0.12 0.12 88 1023.2
20260505183248 74 225 0.0 0.0 0.12 0.12 0.12 88 1023.2
20260505182738 74 203 0.0 0.0 0.09 0.09 0.09 86 1023.3
20260505182228 74 113 0.0 0.0 0.07 0.07 0.07 85 1022.6
20260505181718 75 203 0.0 0.0 0.06 0.06 0.06 82 1023.1
20260505181209 75 203 0.0 2.0 0.00 0.00 0.00 80 1023.2
20260505180658 75 113 1.0 2.0 0.00 0.00 0.00 78 1023.1
20260505175637 76 90 0.0 2.0 0.00 0.00 0.00 78 1022.9
20260505175126 76 68 1.0 2.0 0.00 0.00 0.00 77 1022.9
20260505174616 76 68 0.0 2.0 0.00 0.00 0.00 77 1023.0
20260505174107 76 90 0.0 2.0 0.00 0.00 0.00 76 1023.1
20260505173556 76 45 0.0 2.0 0.00 0.00 0.00 75 1023.2
20260505173047 76 68 0.0 2.0 0.00 0.00 0.00 75 1023.1
20260505172538 76 90 0.0 2.0 0.00 0.00 0.00 75 1023.5
20260505172026 76 113 0.0 2.0 0.00 0.00 0.00 76 1023.5
20260505171518 76 45 1.0 2.0 0.00 0.00 0.00 75 1023.5
20260505171006 76 90 1.0 4.0 0.00 0.00 0.00 74 1023.4
20260505170456 77 113 0.0 4.0 0.00 0.00 0.00 74 1023.4
20260505165945 77 0 2.0 4.0 0.00 0.00 0.00 73 1023.5
20260505165435 78 45 2.0 2.0 0.00 0.00 0.00 71 1023.6
20260505164925 78 113 0.0 2.0 0.00 0.00 0.00 70 1023.9
20260505163904 76 90 0.0 0.0 0.00 0.00 0.00 74 1023.7
20260505163355 76 90 0.0 2.0 0.00 0.00 0.00 75 1024.0
20260505162845 75 68 0.0 2.0 0.00 0.00 0.00 75 1024.0
20260505162334 76 203 0.0 2.0 0.00 0.00 0.00 75 1024.3
20260505161824 76 135 0.0 2.0 0.00 0.00 0.00 74 1024.3
20260505161315 76 180 0.0 2.0 0.00 0.00 0.00 74 1024.4
20260505160803 76 113 0.0 2.0 0.00 0.00 0.00 73 1024.3
20260505160254 76 113 0.0 2.0 0.00 0.00 0.00 74 1024.6
20260505153200 76 45 1.0 4.0 0.00 0.00 0.00 73 1024.4
20260505152644 76 23 1.0 4.0 0.00 0.00 0.00 72 1024.1
20260505152133 76 68 2.0 4.0 0.00 0.00 0.00 73 1024.3
20260505151623 76 293 2.0 4.0 0.00 0.00 0.00 73 1024.1
20260505151113 76 338 2.0 4.0 0.00 0.00 0.00 73 1024.7
20260505150603 76 23 3.0 4.0 0.00 0.00 0.00 73 1024.4
20260505140401 72 338 0.0 4.0 0.00 0.00 0.00 78 1024.7
20260505124630 66 90 0.0 2.0 0.00 0.00 0.00 80 1024.1
20260505123610 66 135 0.0 2.0 0.00 0.00 0.00 80 1024.6
20260505123059 65 135 0.0 2.0 0.00 0.00 0.00 84 1024.4
20260505122549 64 0 2.0 2.0 0.00 0.00 0.00 84 1024.8
20260505122039 64 113 0.0 2.0 0.00 0.00 0.00 84 1024.6
20260505121020 64 113 0.0 2.0 0.00 0.00 0.00 83 1024.3
20260505115449 63 45 0.0 2.0 0.00 0.00 0.00 85 1024.6
20260505114430 63 0 0.0 2.0 0.00 0.00 0.00 85 1024.2
20260505113408 62 90 0.0 2.0 0.00 0.00 0.00 85 1024.2
20260505112348 61 23 0.0 2.0 0.00 0.00 0.00 85 1024.1
20260505111837 61 45 0.0 2.0 0.00 0.00 0.00 84 1024.3
20260505111328 61 90 0.0 2.0 0.00 0.00 0.00 84 1024.1
20260505110817 60 68 0.0 2.0 0.00 0.00 0.00 85 1024.1
20260505110308 60 68 0.0 0.0 0.00 0.00 0.00 85 1024.2
20260505101638 61 135 0.0 2.0 0.00 0.00 0.00 85 1023.8
20260505101126 61 158 0.0 2.0 0.00 0.00 0.00 84 1023.7
20260505100617 61 158 0.0 0.0 0.00 0.00 0.00 84 1023.6
20260505100106 61 158 0.0 2.0 0.00 0.00 0.00 84 1023.7
20260505095556 61 158 0.0 2.0 0.00 0.00 0.00 84 1023.5
20260505095043 61 90 0.0 0.0 0.00 0.00 0.00 84 1023.5
20260505094536 61 90 0.0 0.0 0.00 0.00 0.00 84 1023.7
20260505093517 61 90 0.0 0.0 0.00 0.00 0.00 84 1023.5
20260505093006 61 90 0.0 2.0 0.00 0.00 0.00 84 1023.1
20260505092456 61 45 0.0 2.0 0.00 0.00 0.00 84 1023.1
20260505091946 61 68 0.0 2.0 0.00 0.00 0.00 84 1022.9
20260505091434 61 45 0.0 2.0 0.00 0.00 0.00 83 1022.7
20260505090927 61 90 0.0 2.0 0.00 0.00 0.00 83 1022.7
20260505090414 61 113 0.0 2.0 0.00 0.00 0.00 83 1022.8
20260505085905 61 90 0.0 2.0 0.00 0.00 0.00 83 1022.9
20260505085355 61 113 0.0 2.0 0.00 0.00 0.00 83 1022.9
20260505084845 61 113 0.0 2.0 0.00 0.00 0.00 83 1022.8
20260505084334 61 90 0.0 2.0 0.00 0.00 0.00 83 1023.1
20260505083824 62 113 0.0 2.0 0.00 0.00 0.00 83 1022.7
20260505083314 62 23 0.0 2.0 0.00 0.00 0.00 83 1022.7
20260505082804 62 68 1.0 2.0 0.00 0.00 0.00 83 1022.8
20260505081744 62 0 1.0 2.0 0.00 0.00 0.00 83 1022.8
20260505081234 61 23 0.0 2.0 0.00 0.00 0.00 83 1022.9
20260505080724 61 23 1.0 2.0 0.00 0.00 0.00 82 1022.8